Hourly Data Report for October 08, 2015

All times are specified in Local Standard Time (LST). Add 1 hour to adjust for Daylight Saving Time where and when it is observed.

SAINT JOHN A
NEW BRUNSWICK

45°18'58.000" N
65°53'24.000" W
108.80 m
8104901
71609
YSJ

Download Data

Hourly Data (October 2015)
Hourly Data Report for October 8, 2015
Temp Definition
°C
Dew Point Temp Definition
°C
Rel Hum Definition
%
Wind Dir Definition
10's deg

Wind Spd Definition
km/h
Visibility Definition
km
Stn Press Definition
kPa
Hmdx Definition


Wind Chill Definition


Weather Definition


TIME
00:00 Legend Double Dagger 10.6 9.0 90 31 14 24.1 99.79     LegendNANA
01:00 Legend Double Dagger 10.6 8.0 84 33 22 24.1 99.84     LegendNANA
02:00 Legend Double Dagger 9.9 7.0 82 33 23 24.1 99.91     Mainly Clear
03:00 Legend Double Dagger 9.1 5.3 77 34 21 24.1 99.93     LegendNANA
04:00 Legend Double Dagger 8.1 4.7 79 33 21 24.1 100.01     LegendNANA
05:00 Legend Double Dagger 6.7 2.8 76 33 15 24.1 100.11     Clear
06:00 Legend Double Dagger 6.5 2.0 73 33 18 24.1 100.18     LegendNANA
07:00 Legend Double Dagger 5.3 2.3 81 32 11 24.1 100.28     LegendNANA
08:00 Legend Double Dagger 7.5 2.0 68 32 15 24.1 100.35     Clear
09:00 Legend Double Dagger 9.0 1.5 59 33 26 24.1 100.40     LegendNANA
10:00 Legend Double Dagger 10.3 0.6 51 32 28 24.1 100.44     LegendNANA
11:00 Legend Double Dagger 11.5 -0.3 44 31 21 24.1 100.39     Clear
12:00 Legend Double Dagger 12.4 0.5 44 33 21 24.1 100.42     LegendNANA
13:00 Legend Double Dagger 12.5 0.6 44 34 14 24.1 100.38     LegendNANA
14:00 Legend Double Dagger 13.4 0.5 41 32 19 24.1 100.36     Mainly Clear
15:00 Legend Double Dagger 13.4 0.5 41 33 21 24.1 100.37     LegendNANA
16:00 Legend Double Dagger 13.2 0.3 41 32 19 24.1 100.39     LegendNANA
17:00 Legend Double Dagger 11.8 0.3 45 33 16 24.1 100.46     Mainly Clear
18:00 Legend Double Dagger 8.5 1.4 61 32 7 24.1 100.53     LegendNANA
19:00 Legend Double Dagger 5.5 1.8 77 32 5 24.1 100.57     LegendNANA
20:00 Legend Double Dagger 4.5 2.2 85 36 2 24.1 100.61     Mainly Clear
21:00 Legend Double Dagger 2.5 1.6 94 36 2 24.1 100.66     LegendNANA
22:00 Legend Double Dagger 1.3 0.3 93 36 1 24.1 100.68     LegendNANA
23:00 Legend Double Dagger 2.6 1.9 95 0 1 24.1 100.69     Mostly Cloudy

Notes on Data Quality.

Legend

  • E = Estimated
  • M = Missing
  • NA = Not Available
  • ‡ = Partner data that is not subject to review by the National Climate Archives
Date modified: